| time (UTC) | temp F | wind direction | speed MPH | gust MPH | rain 1hr in | rain 24hr in | rain mn in | humidity % | barometer mb |
| 20260504035247 | 51 | 151 | 2.0 | 3.0 | 0.00 | 0.00 | 0.00 | 45 | 1013.0 |
| 20260504034745 | 51 | 147 | 2.0 | 3.0 | 0.00 | 0.00 | 0.00 | 45 | 1012.9 |
| 20260504034242 | 51 | 146 | 3.0 | 3.0 | 0.00 | 0.00 | 0.00 | 46 | 1012.9 |
| 20260504033740 | 51 | 260 | 2.0 | 6.0 | 0.00 | 0.00 | 0.00 | 45 | 1012.9 |
| 20260504033237 | 51 | 111 | 1.0 | 2.0 | 0.00 | 0.00 | 0.00 | 45 | 1012.8 |
| 20260504032734 | 51 | 110 | 1.0 | 1.0 | 0.00 | 0.00 | 0.00 | 45 | 1012.8 |
| 20260504032231 | 52 | 114 | 1.0 | 1.0 | 0.00 | 0.00 | 0.00 | 44 | 1012.8 |
| 20260504031727 | 51 | 118 | 0.0 | 2.0 | 0.00 | 0.00 | 0.00 | 46 | 1013.0 |
| 20260504031225 | 51 | 92 | 1.0 | 2.0 | 0.00 | 0.00 | 0.00 | 45 | 1012.7 |
| 20260504030720 | 51 | 162 | 1.0 | 2.0 | 0.00 | 0.00 | 0.00 | 45 | 1012.9 |
| 20260504030218 | 51 | 128 | 0.0 | 1.0 | 0.00 | 0.00 | 0.00 | 45 | 1012.9 |
| 20260504025714 | 51 | 122 | 2.0 | 2.0 | 0.00 | 0.00 | 0.00 | 47 | 1012.9 |
| 20260504025211 | 50 | 174 | 3.0 | 3.0 | 0.00 | 0.00 | 0.00 | 46 | 1012.9 |
| 20260504024708 | 52 | 95 | 0.0 | 0.0 | 0.00 | 0.00 | 0.00 | 45 | 1013.0 |
| 20260504024205 | 51 | 157 | 3.0 | 4.0 | 0.00 | 0.00 | 0.00 | 45 | 1013.1 |
| 20260504023701 | 52 | 120 | 3.0 | 3.0 | 0.00 | 0.00 | 0.00 | 44 | 1012.8 |
| 20260504023157 | 51 | 306 | 2.0 | 2.0 | 0.00 | 0.00 | 0.00 | 44 | 1012.9 |
| 20260504022654 | 51 | 25 | 1.0 | 2.0 | 0.00 | 0.00 | 0.00 | 48 | 1013.0 |
| 20260504022150 | 51 | 84 | 0.0 | 0.0 | 0.00 | 0.00 | 0.00 | 49 | 1012.9 |
| 20260504021648 | 52 | 88 | 2.0 | 2.0 | 0.00 | 0.00 | 0.00 | 44 | 1012.9 |
| 20260504021144 | 51 | 256 | 3.0 | 3.0 | 0.00 | 0.00 | 0.00 | 46 | 1012.8 |
| 20260504020642 | 50 | 111 | 2.0 | 2.0 | 0.00 | 0.00 | 0.00 | 45 | 1012.8 |
| 20260504020137 | 49 | 85 | 0.0 | 0.0 | 0.00 | 0.00 | 0.00 | 50 | 1012.9 |
| 20260504015634 | 50 | 113 | 1.0 | 2.0 | 0.00 | 0.00 | 0.00 | 49 | 1012.9 |
| 20260504015131 | 51 | 95 | 0.0 | 0.0 | 0.00 | 0.00 | 0.00 | 49 | 1012.9 |
| 20260504014626 | 51 | 95 | 0.0 | 0.0 | 0.00 | 0.00 | 0.00 | 49 | 1012.9 |
| 20260504014124 | 51 | 162 | 2.0 | 3.0 | 0.00 | 0.00 | 0.00 | 45 | 1013.0 |
| 20260504013621 | 51 | 163 | 0.0 | 0.0 | 0.00 | 0.00 | 0.00 | 47 | 1012.8 |
| 20260504013118 | 51 | 179 | 0.0 | 0.0 | 0.00 | 0.00 | 0.00 | 46 | 1012.7 |
| 20260504012615 | 52 | 119 | 1.0 | 2.0 | 0.00 | 0.00 | 0.00 | 45 | 1012.8 |
| 20260504012113 | 51 | 156 | 2.0 | 2.0 | 0.00 | 0.00 | 0.00 | 44 | 1012.7 |
| 20260504011610 | 49 | 98 | 0.0 | 0.0 | 0.00 | 0.00 | 0.00 | 50 | 1012.6 |
| 20260504011106 | 49 | 98 | 0.0 | 0.0 | 0.00 | 0.00 | 0.00 | 50 | 1012.6 |
| 20260504010602 | 50 | 91 | 0.0 | 0.0 | 0.00 | 0.00 | 0.00 | 50 | 1012.5 |
| 20260504010058 | 51 | 119 | 1.0 | 2.0 | 0.00 | 0.00 | 0.00 | 42 | 1012.4 |
| 20260504005555 | 51 | 119 | 1.0 | 2.0 | 0.00 | 0.00 | 0.00 | 42 | 1012.4 |
| 20260504005052 | 52 | 116 | 0.0 | 0.0 | 0.00 | 0.00 | 0.00 | 42 | 1012.3 |
| 20260504004550 | 52 | 116 | 0.0 | 0.0 | 0.00 | 0.00 | 0.00 | 42 | 1012.3 |
| 20260504004047 | 52 | 112 | 1.0 | 1.0 | 0.00 | 0.00 | 0.00 | 43 | 1012.2 |
| 20260504003543 | 52 | 96 | 2.0 | 2.0 | 0.00 | 0.00 | 0.00 | 42 | 1012.1 |
| 20260504003040 | 52 | 134 | 0.0 | 0.0 | 0.00 | 0.00 | 0.00 | 44 | 1012.1 |
| 20260504002537 | 52 | 108 | 0.0 | 0.0 | 0.00 | 0.00 | 0.00 | 41 | 1012.1 |
| 20260504002034 | 53 | 115 | 0.0 | 0.0 | 0.00 | 0.00 | 0.00 | 42 | 1012.0 |
| 20260504001532 | 52 | 115 | 0.0 | 0.0 | 0.00 | 0.00 | 0.00 | 41 | 1012.0 |
| 20260504001027 | 53 | 145 | 2.0 | 2.0 | 0.00 | 0.00 | 0.00 | 39 | 1011.9 |
| 20260504000525 | 53 | 145 | 2.0 | 2.0 | 0.00 | 0.00 | 0.00 | 39 | 1011.9 |
| 20260504000022 | 53 | 145 | 2.0 | 2.0 | 0.00 | 0.00 | 0.00 | 39 | 1012.1 |
| 20260503235520 | 53 | 145 | 2.0 | 2.0 | 0.00 | 0.00 | 0.00 | 39 | 1011.6 |
| 20260503235017 | 54 | 108 | 0.0 | 0.0 | 0.00 | 0.00 | 0.00 | 40 | 1011.7 |
| 20260503234515 | 55 | 113 | 1.0 | 2.0 | 0.00 | 0.00 | 0.00 | 37 | 1011.3 |
| 20260503234013 | 55 | 113 | 1.0 | 2.0 | 0.00 | 0.00 | 0.00 | 37 | 1011.3 |
| 20260503233509 | 54 | 105 | 0.0 | 0.0 | 0.00 | 0.00 | 0.00 | 37 | 1011.3 |
| 20260503233005 | 54 | 106 | 0.0 | 0.0 | 0.00 | 0.00 | 0.00 | 39 | 1011.5 |
| 20260503232502 | 55 | 105 | 0.0 | 0.0 | 0.00 | 0.00 | 0.00 | 37 | 1011.3 |
| 20260503232000 | 55 | 142 | 0.0 | 0.0 | 0.00 | 0.00 | 0.00 | 36 | 1011.6 |
| 20260503231457 | 55 | 119 | 0.0 | 0.0 | 0.00 | 0.00 | 0.00 | 36 | 1011.5 |
| 20260503230954 | 56 | 136 | 1.0 | 1.0 | 0.00 | 0.00 | 0.00 | 35 | 1011.7 |
| 20260503230450 | 56 | 99 | 1.0 | 2.0 | 0.00 | 0.00 | 0.00 | 37 | 1011.6 |
| 20260503225948 | 56 | 188 | 4.0 | 4.0 | 0.00 | 0.00 | 0.00 | 34 | 1011.6 |
| 20260503225444 | 56 | 137 | 2.0 | 2.0 | 0.00 | 0.00 | 0.00 | 34 | 1011.3 |
| 20260503224940 | 56 | 38 | 3.0 | 4.0 | 0.00 | 0.00 | 0.00 | 34 | 1011.3 |
| 20260503224437 | 57 | 210 | 2.0 | 3.0 | 0.00 | 0.00 | 0.00 | 34 | 1011.3 |
| 20260503223935 | 57 | 72 | 2.0 | 2.0 | 0.00 | 0.00 | 0.00 | 33 | 1011.5 |
| 20260503223433 | 57 | 193 | 2.0 | 3.0 | 0.00 | 0.00 | 0.00 | 33 | 1011.3 |
| 20260503222928 | 57 | 205 | 2.0 | 4.0 | 0.00 | 0.00 | 0.00 | 34 | 1011.5 |
| 20260503222427 | 57 | 207 | 5.0 | 7.0 | 0.00 | 0.00 | 0.00 | 32 | 1011.2 |
| 20260503221925 | 57 | 189 | 5.0 | 7.0 | 0.00 | 0.00 | 0.00 | 32 | 1011.1 |
| 20260503221423 | 57 | 261 | 4.0 | 9.0 | 0.00 | 0.00 | 0.00 | 31 | 1011.1 |
| 20260503220919 | 57 | 303 | 4.0 | 6.0 | 0.00 | 0.00 | 0.00 | 31 | 1011.1 |
| 20260503220415 | 57 | 260 | 3.0 | 3.0 | 0.00 | 0.00 | 0.00 | 33 | 1011.2 |
| 20260503215913 | 57 | 176 | 4.0 | 4.0 | 0.00 | 0.00 | 0.00 | 31 | 1011.2 |
| 20260503215410 | 57 | 281 | 3.0 | 4.0 | 0.00 | 0.00 | 0.00 | 32 | 1011.1 |
| 20260503214907 | 57 | 228 | 5.0 | 9.0 | 0.00 | 0.00 | 0.00 | 31 | 1011.0 |
| 20260503214404 | 57 | 244 | 5.0 | 7.0 | 0.00 | 0.00 | 0.00 | 31 | 1010.9 |
| 20260503213902 | 57 | 184 | 5.0 | 7.0 | 0.00 | 0.00 | 0.00 | 31 | 1010.9 |
| 20260503213400 | 57 | 149 | 1.0 | 2.0 | 0.00 | 0.00 | 0.00 | 32 | 1011.0 |
| 20260503212856 | 57 | 178 | 3.0 | 3.0 | 0.00 | 0.00 | 0.00 | 31 | 1011.0 |
| 20260503212354 | 57 | 213 | 6.0 | 8.0 | 0.00 | 0.00 | 0.00 | 31 | 1011.1 |
| 20260503211851 | 57 | 203 | 3.0 | 4.0 | 0.00 | 0.00 | 0.00 | 32 | 1010.8 |
| 20260503211347 | 57 | 201 | 5.0 | 7.0 | 0.00 | 0.00 | 0.00 | 31 | 1010.9 |
| 20260503210842 | 57 | 144 | 0.0 | 6.0 | 0.00 | 0.00 | 0.00 | 33 | 1010.8 |
| 20260503210340 | 57 | 93 | 0.0 | 0.0 | 0.00 | 0.00 | 0.00 | 36 | 1010.9 |
| 20260503205835 | 57 | 35 | 2.0 | 2.0 | 0.00 | 0.00 | 0.00 | 32 | 1010.7 |
| 20260503205332 | 57 | 102 | 2.0 | 6.0 | 0.00 | 0.00 | 0.00 | 31 | 1011.0 |
| 20260503204828 | 56 | 351 | 5.0 | 9.0 | 0.00 | 0.00 | 0.00 | 31 | 1011.0 |
| 20260503204326 | 56 | 103 | 2.0 | 7.0 | 0.00 | 0.00 | 0.00 | 31 | 1011.1 |
| 20260503203823 | 57 | 22 | 2.0 | 3.0 | 0.00 | 0.00 | 0.00 | 32 | 1010.9 |
| 20260503203320 | 55 | 85 | 2.0 | 3.0 | 0.00 | 0.00 | 0.00 | 33 | 1011.0 |
| 20260503202817 | 56 | 271 | 6.0 | 7.0 | 0.00 | 0.00 | 0.00 | 32 | 1011.2 |
| 20260503202315 | 56 | 357 | 3.0 | 3.0 | 0.00 | 0.00 | 0.00 | 33 | 1011.2 |
| 20260503201813 | 56 | 217 | 4.0 | 6.0 | 0.00 | 0.00 | 0.00 | 34 | 1011.1 |
| 20260503201310 | 56 | 156 | 2.0 | 3.0 | 0.00 | 0.00 | 0.00 | 34 | 1011.0 |
| 20260503200802 | 56 | 157 | 4.0 | 10.0 | 0.00 | 0.00 | 0.00 | 32 | 1011.3 |
| 20260503200258 | 55 | 85 | 1.0 | 6.0 | 0.00 | 0.00 | 0.00 | 33 | 1011.3 |
| 20260503195755 | 56 | 256 | 7.0 | 9.0 | 0.00 | 0.00 | 0.00 | 33 | 1011.7 |
| 20260503195251 | 57 | 175 | 8.0 | 13.0 | 0.00 | 0.00 | 0.00 | 32 | 1011.3 |
| 20260503194744 | 56 | 12 | 2.0 | 7.0 | 0.00 | 0.00 | 0.00 | 31 | 1011.5 |
| 20260503194239 | 57 | 95 | 1.0 | 4.0 | 0.00 | 0.00 | 0.00 | 32 | 1011.7 |
| 20260503193735 | 56 | 84 | 3.0 | 9.0 | 0.00 | 0.00 | 0.00 | 31 | 1011.7 |
| 20260503193231 | 57 | 320 | 5.0 | 10.0 | 0.00 | 0.00 | 0.00 | 31 | 1011.8 |
| 20260503192727 | 56 | 348 | 2.0 | 7.0 | 0.00 | 0.00 | 0.00 | 31 | 1011.6 |
| 20260503192222 | 57 | 251 | 4.0 | 6.0 | 0.00 | 0.00 | 0.00 | 33 | 1011.6 |
| 20260503191720 | 56 | 324 | 2.0 | 4.0 | 0.00 | 0.00 | 0.00 | 34 | 1011.8 |
| 20260503191217 | 56 | 98 | 2.0 | 4.0 | 0.00 | 0.00 | 0.00 | 32 | 1011.6 |
| 20260503190714 | 57 | 345 | 3.0 | 4.0 | 0.00 | 0.00 | 0.00 | 31 | 1011.2 |
| 20260503190210 | 56 | 59 | 3.0 | 7.0 | 0.00 | 0.00 | 0.00 | 31 | 1011.8 |
| 20260503185708 | 56 | 266 | 4.0 | 11.0 | 0.00 | 0.00 | 0.00 | 33 | 1011.7 |
| 20260503185203 | 57 | 227 | 4.0 | 6.0 | 0.00 | 0.00 | 0.00 | 31 | 1011.9 |
| 20260503184657 | 55 | 331 | 4.0 | 7.0 | 0.00 | 0.00 | 0.00 | 33 | 1011.7 |
| 20260503184154 | 55 | 291 | 4.0 | 4.0 | 0.00 | 0.00 | 0.00 | 33 | 1011.9 |
| 20260503183650 | 56 | 36 | 4.0 | 9.0 | 0.00 | 0.00 | 0.00 | 36 | 1011.9 |
| 20260503183148 | 55 | 339 | 3.0 | 9.0 | 0.00 | 0.00 | 0.00 | 32 | 1012.1 |
| 20260503182646 | 54 | 274 | 3.0 | 4.0 | 0.00 | 0.00 | 0.00 | 35 | 1012.0 |
| 20260503182144 | 54 | 192 | 3.0 | 8.0 | 0.00 | 0.00 | 0.00 | 35 | 1011.8 |
| 20260503181641 | 56 | 23 | 6.0 | 8.0 | 0.00 | 0.00 | 0.00 | 34 | 1012.1 |
| 20260503181138 | 53 | 262 | 3.0 | 4.0 | 0.00 | 0.00 | 0.00 | 36 | 1011.9 |
| 20260503180635 | 53 | 66 | 5.0 | 6.0 | 0.00 | 0.00 | 0.00 | 35 | 1011.9 |
| 20260503180132 | 53 | 64 | 4.0 | 8.0 | 0.00 | 0.00 | 0.00 | 35 | 1012.1 |
| 20260503175629 | 54 | 239 | 6.0 | 7.0 | 0.00 | 0.00 | 0.00 | 34 | 1012.1 |
| 20260503175126 | 54 | 259 | 4.0 | 8.0 | 0.00 | 0.00 | 0.00 | 33 | 1012.0 |
| 20260503174623 | 53 | 80 | 1.0 | 2.0 | 0.00 | 0.00 | 0.00 | 36 | 1011.9 |
| 20260503174120 | 52 | 153 | 2.0 | 8.0 | 0.00 | 0.00 | 0.00 | 38 | 1012.1 |
| 20260503173615 | 53 | 240 | 6.0 | 7.0 | 0.00 | 0.00 | 0.00 | 34 | 1012.1 |
| 20260503173112 | 55 | 43 | 2.0 | 2.0 | 0.00 | 0.00 | 0.00 | 35 | 1012.0 |
| 20260503172609 | 53 | 141 | 2.0 | 8.0 | 0.00 | 0.00 | 0.00 | 35 | 1012.1 |
| 20260503172106 | 53 | 100 | 3.0 | 4.0 | 0.00 | 0.00 | 0.00 | 34 | 1012.0 |
| 20260503171602 | 52 | 345 | 3.0 | 8.0 | 0.00 | 0.00 | 0.00 | 37 | 1012.3 |
| 20260503171100 | 51 | 39 | 5.0 | 9.0 | 0.00 | 0.00 | 0.00 | 37 | 1012.6 |
| 20260503170556 | 51 | 136 | 1.0 | 13.0 | 0.00 | 0.00 | 0.00 | 37 | 1012.5 |
| 20260503150943 | 47 | 23 | 7.0 | 10.0 | 0.00 | 0.00 | 0.00 | 48 | 1013.4 |
| 20260503150439 | 45 | 59 | 2.0 | 2.0 | 0.00 | 0.00 | 0.00 | 51 | 1013.2 |
| 20260503131332 | 44 | 64 | 2.0 | 4.0 | 0.00 | 0.00 | 0.00 | 57 | 1013.1 |
| 20260503130830 | 43 | 173 | 2.0 | 3.0 | 0.00 | 0.00 | 0.00 | 59 | 1013.2 |
| 20260503130327 | 44 | 116 | 0.0 | 1.0 | 0.00 | 0.00 | 0.00 | 59 | 1013.0 |
| 20260503110720 | 40 | 146 | 2.0 | 3.0 | 0.00 | 0.00 | 0.00 | 67 | 1012.6 |
| 20260503110218 | 40 | 96 | 1.0 | 2.0 | 0.00 | 0.00 | 0.00 | 67 | 1012.4 |
| 20260503100143 | 40 | 338 | 4.0 | 4.0 | 0.00 | 0.00 | 0.00 | 66 | 1011.3 |
| 20260503081538 | 42 | 71 | 1.0 | 2.0 | 0.00 | 0.00 | 0.00 | 62 | 1011.0 |
| 20260503081036 | 42 | 68 | 2.0 | 4.0 | 0.00 | 0.00 | 0.00 | 60 | 1011.1 |
| 20260503080531 | 42 | 104 | 4.0 | 4.0 | 0.00 | 0.00 | 0.00 | 61 | 1011.0 |
| 20260503072505 | 43 | 77 | 2.0 | 3.0 | 0.00 | 0.00 | 0.00 | 60 | 1010.7 |
| 20260503072003 | 43 | 357 | 2.0 | 2.0 | 0.00 | 0.00 | 0.00 | 59 | 1010.7 |
| 20260503071459 | 43 | 82 | 3.0 | 4.0 | 0.00 | 0.00 | 0.00 | 59 | 1010.5 |
| 20260503070955 | 43 | 82 | 1.0 | 4.0 | 0.00 | 0.00 | 0.00 | 59 | 1010.7 |
| 20260503070452 | 43 | 16 | 2.0 | 3.0 | 0.00 | 0.00 | 0.00 | 60 | 1010.7 |
| 20260503054906 | 44 | 36 | 2.0 | 3.0 | 0.00 | 0.00 | 0.00 | 60 | 1010.8 |
| 20260503054402 | 44 | 358 | 2.0 | 3.0 | 0.00 | 0.00 | 0.00 | 60 | 1011.0 |
| 20260503053901 | 44 | 64 | 1.0 | 1.0 | 0.00 | 0.00 | 0.00 | 62 | 1011.2 |
| 20260503053358 | 44 | 80 | 0.0 | 1.0 | 0.00 | 0.00 | 0.00 | 61 | 1011.5 |
| 20260503052854 | 43 | 82 | 0.0 | 0.0 | 0.00 | 0.00 | 0.00 | 61 | 1011.3 |
| 20260503052351 | 43 | 94 | 0.0 | 0.0 | 0.00 | 0.00 | 0.00 | 65 | 1011.5 |
| 20260503051847 | 44 | 99 | 0.0 | 0.0 | 0.00 | 0.00 | 0.00 | 62 | 1011.6 |
| 20260503051344 | 44 | 98 | 0.0 | 0.0 | 0.00 | 0.00 | 0.00 | 62 | 1011.6 |
| 20260503050841 | 44 | 98 | 0.0 | 0.0 | 0.00 | 0.00 | 0.00 | 61 | 1011.6 |
| 20260503050337 | 44 | 95 | 0.0 | 0.0 | 0.00 | 0.00 | 0.00 | 62 | 1011.6 |
| 20260503045835 | 44 | 89 | 0.0 | 0.0 | 0.00 | 0.00 | 0.00 | 60 | 1011.5 |
| 20260503045332 | 44 | 96 | 0.0 | 0.0 | 0.00 | 0.00 | 0.00 | 61 | 1011.7 |
| 20260503044828 | 44 | 92 | 0.0 | 0.0 | 0.00 | 0.00 | 0.00 | 58 | 1011.5 |
| 20260503044326 | 44 | 93 | 0.0 | 1.0 | 0.00 | 0.00 | 0.00 | 60 | 1011.7 |
| 20260503043823 | 45 | 94 | 0.0 | 2.0 | 0.00 | 0.00 | 0.00 | 57 | 1011.7 |
| 20260503043320 | 45 | 91 | 0.0 | 2.0 | 0.00 | 0.00 | 0.00 | 55 | 1011.9 |
| 20260503042816 | 44 | 45 | 1.0 | 2.0 | 0.00 | 0.00 | 0.00 | 57 | 1011.9 |
| 20260503042313 | 44 | 90 | 0.0 | 0.0 | 0.00 | 0.00 | 0.00 | 57 | 1012.0 |
| 20260503041809 | 45 | 94 | 0.0 | 1.0 | 0.00 | 0.00 | 0.00 | 57 | 1011.7 |
| 20260503041306 | 45 | 94 | 0.0 | 1.0 | 0.00 | 0.00 | 0.00 | 57 | 1012.0 |
| 20260503040804 | 45 | 80 | 1.0 | 2.0 | 0.00 | 0.00 | 0.00 | 56 | 1012.0 |
| 20260503040301 | 45 | 60 | 1.0 | 1.0 | 0.00 | 0.00 | 0.00 | 57 | 1012.0 |
| 20260503035758 | 45 | 86 | 0.0 | 2.0 | 0.00 | 0.07 | 0.07 | 56 | 1012.0 |